Dewpoint
23 24 24 25 25 24 24 23 22 22 22 21 21 23 23 21 22 21 21 21 21 22 23 23 24 27 28 29 30 32 35 39 43 45 49 53 49 51 55 57 57 57 49
25 23 24 25 25 24 23 23 23 20 19 20 20 21 22 20 20 20 20 20 20 20 21 22 23 25 26 27 27 28 31 35 36 45 42 42 39 39 47 48 51 48 47
25 24 23 25 26 24 22 20 20 21 19 18 19 20 22 20 17 19 18 19 18 19 20 21 23 22 23 25 25 25 29 31 32 35 33 32 36 33 39 43 41 43 42
24 23 21 24 26 26 23 18 17 19 18 17 17 18 20 22 19 18 18 18 18 18 19 20 22 23 23 24 25 24 25 27 28 28 27 28 29 31 33 34 38 36 35
25 26 23 25 28 27 23 19 18 18 18 17 17 17 19 20 19 18 18 17 18 17 18 19 20 20 22 24 23 24 23 23 24 24 24 24 25 26 27 31 36 36 32
22 22 23 22 23 24 23 22 21 19 18 18 17 18 18 20 17 17 17 17 17 18 16 17 18 18 18 18 19 22 24 21 20 20 20 20 22 23 27 29 29 33 31
22 22 22 21 21 21 22 22 21 20 19 17 16 18 18 18 17 16 16 17 17 18 18 16 16 18 17 16 16 16 18 21 22 21 19 20 21 23 25 27 28 26 25
22 22 22 22 21 21 20 21 23 21 19 18 17 16 17 17 17 17 16 17 17 17 18 17 15 15 16 15 14 14 14 17 19 20 21 21 23 24 25 27 27 27 25
22 21 21 22 22 20 20 20 22 23 21 18 18 18 16 17 17 17 18 17 18 17 17 16 15 14 14 14 13 12 12 13 15 15 16 17 19 21 23 23 23 22 21
21 21 22 22 21 22 21 21 21 25 21 19 16 16 17 15 17 17 18 18 17 18 17 16 13 13 12 13 13 12 11 12 12 12 13 14 15 16 17 20 21 20 21
21 21 22 23 22 19 19 20 20 20 20 20 18 17 15 16 15 16 17 19 16 18 17 15 14 11 10 11 11 11 10 11 11 11 11 12 13 13 14 15 18 18 16
21 20 16 21 18 16 15 16 17 17 17 17 16 14 15 15 15 15 16 16 19 18 19 16 13 11 10 9 10 8 9 9 8 9 9 10 11 11 12 13 14 15 15
17 11 10 15 14 11 9 12 13 13 15 14 13 12 11 13 13 15 17 16 18 19 18 16 12 12 12 12 8 9 9 8 6 6 8 9 10 11 10 10 10 12 12
9 8 8 11 12 11 11 12 13 12 13 12 11 10 9 11 11 13 18 16 15 15 15 14 14 16 14 14 12 11 11 10 7 6 7 9 9 8 7 8 7 8 8
7 7 8 10 9 12 13 13 14 15 13 11 10 9 10 10 12 14 15 17 13 12 10 10 10 10 10 11 12 12 11 11 8 6 6 7 7 6 5 6 6 6 5
11 12 12 11 11 12 16 16 16 16 16 15 14 11 10 14 13 13 11 11 11 10 8 7 7 8 9 9 9 9 10 12 10 5 5 6 6 5 3 4 4 3 3
11 15 16 16 17 16 15 16 16 17 18 16 14 10 12 11 15 12 9 9 9 9 7 6 6 6 6 6 6 6 6 8 11 7 5 6 6 4 3 2 1 2 2
15 17 17 16 16 15 15 16 15 15 14 14 9 9 12 11 14 10 7 6 5 6 6 5 5 5 5 4 3 4 4 5 7 7 5 4 5 4 3 2 1 2 2
18 16 15 13 13 13 13 11 11 11 13 11 4 5 8 10 10 7 6 4 3 4 4 4 4 4 4 3 1 1 1 2 5 7 3 3 3 4 3 3 2 2 1
16 15 15 13 13 12 11 10 10 10 10 5 2 5 5 6 5 4 1 1 1 2 2 2 2 2 2 2 1 -1 -0 0 2 4 4 2 1 3 3 3 2 0 -1
11 13 14 13 10 9 9 9 8 8 7 4 4 4 4 5 5 4 2 1 2 1 -2 -3 -3 -1 3 2 1 -2 -2 -2 0 3 4 1 0 1 3 2 0 -1 -1
13 12 13 12 10 7 9 10 8 7 7 6 7 5 4 3 4 3 2 0 -1 -2 -2 -4 -2 -0 3 1 -2 -3 -1 -1 2 2 -0 -1 1 1 1 0 -1 -1 -2
15 12 11 11 8 7 9 7 5 5 6 5 5 4 3 2 2 2 -0 -2 -6 -7 -6 -3 -2 -2 -1 -2 -3 -1 0 1 3 1 -2 -2 -0 1 1 -1 -2 -3 -2
10 9 10 7 8 7 5 3 3 5 5 3 2 1 1 -1 -1 -2 -4 -8 -8 -8 -7 -6 -5 -3 -3 -3 -2 0 4 3 3 1 -2 -2 -0 0 -1 -2 -2 -2 -2
8 8 7 5 6 4 4 5 4 3 2 2 1 -1 -2 -4 -5 -6 -8 -9 -8 -9 -8 -6 -5 -3 -2 -2 -0 2 3 3 1 -3 -3 -1 -1 -2 -2 -2 -3 -2 -2
8 8 6 6 5 4 4 4 3 0 0 -1 -3 -5 -3 -5 -6 -8 -9 -9 -10 -9 -7 -5 -3 -2 -1 1 3 5 2 -1 -4 -3 -2 -0 -2 -2 -2 -2 -2 -2 -2
Wind_Speed
7 7 9 8 8 8 9 10 12 13 14 17 16 16 17 19 18 19 19 20 21 21 21 22 25 24 23 20 18 15 15 15 20 20 17 9 7 14 13 9 8 9 13
5 7 6 7 7 10 9 9 11 16 16 15 16 15 16 18 18 19 19 20 22 23 22 23 26 25 27 24 21 22 16 14 12 18 8 11 13 10 13 18 14 16 16
5 5 4 4 5 6 9 11 14 13 16 16 16 17 15 15 19 18 18 19 21 21 21 22 23 26 29 27 28 25 20 16 14 8 8 10 7 17 7 10 18 13 15
7 5 3 4 4 3 6 13 17 15 15 17 17 16 16 11 16 20 19 20 21 21 22 22 25 25 27 29 27 28 24 18 18 16 16 12 12 10 11 9 13 17 18
8 4 3 3 4 6 7 9 15 16 14 13 15 16 16 15 17 17 19 19 19 23 23 23 25 29 30 29 24 28 28 22 18 21 21 20 16 14 15 11 4 12 19
11 11 8 9 9 9 9 10 12 13 12 14 16 15 15 16 22 23 21 17 19 19 23 24 23 28 26 27 29 32 32 27 24 23 24 25 24 15 15 13 11 4 5
12 9 9 9 10 10 9 8 11 11 10 12 14 15 14 17 23 23 22 16 17 19 19 22 22 23 25 21 23 25 27 35 29 24 23 23 24 23 14 14 17 17 11
11 10 9 9 9 9 9 8 8 9 9 10 12 15 15 17 22 23 21 16 18 19 20 19 23 24 27 23 20 21 23 22 26 22 23 22 22 21 19 15 12 10 14
10 9 7 8 8 8 8 7 7 9 9 10 11 12 16 16 22 21 18 15 16 16 19 21 21 23 29 28 22 23 24 26 22 28 29 31 31 36 32 19 22 13 14
11 10 8 8 8 7 6 5 7 9 10 9 13 15 16 16 20 21 17 14 15 14 14 17 28 27 29 29 23 22 23 22 22 24 26 28 28 29 33 27 22 21 11
11 10 8 5 5 12 11 9 11 12 12 9 12 12 14 15 16 19 19 12 13 11 11 14 17 27 29 29 27 23 22 17 20 20 21 22 23 24 23 23 22 20 18
12 9 8 10 7 9 12 10 10 11 13 11 10 11 11 13 15 17 19 19 15 11 11 11 15 22 24 28 23 27 24 18 17 19 20 22 22 23 21 20 20 17 15
14 11 11 13 11 10 11 10 11 11 11 9 9 10 11 11 13 17 18 18 19 13 14 15 17 18 18 16 25 23 19 18 18 20 20 20 18 17 18 20 20 16 17
14 14 13 15 12 10 8 8 10 10 10 8 8 9 10 12 12 13 13 13 16 14 14 14 14 13 14 13 13 15 14 15 17 16 15 14 13 16 20 19 18 20 16
14 13 12 12 12 9 7 8 8 7 9 10 7 7 8 12 10 13 14 11 13 13 12 13 13 12 14 15 14 12 12 11 14 14 15 16 17 17 18 17 18 15 17
15 12 12 12 10 10 9 9 8 10 10 10 7 5 4 9 11 13 14 15 15 13 13 14 13 13 14 14 15 15 15 12 12 13 13 14 15 16 17 17 18 18 17
16 13 11 11 11 10 10 9 11 6 7 8 9 10 9 9 13 13 13 14 16 14 13 12 12 12 13 13 13 14 14 14 9 10 12 11 12 13 16 16 17 17 15
15 14 13 12 11 9 8 9 11 12 11 7 9 11 10 10 14 14 12 13 12 13 11 11 11 11 11 12 12 12 13 13 13 10 12 12 12 12 12 14 15 14 14
15 14 12 10 8 7 7 9 10 9 11 9 6 8 11 11 13 14 15 13 11 10 10 10 10 10 9 9 12 13 12 13 12 10 13 14 14 11 12 12 12 13 14
13 12 12 9 9 9 10 11 10 11 11 10 8 7 5 6 10 12 11 11 12 11 9 8 8 9 8 10 11 12 11 13 12 10 12 13 13 10 12 12 12 13 13
13 11 10 12 11 10 10 10 11 11 11 10 7 4 7 11 9 10 10 9 10 9 9 9 9 10 7 10 10 13 12 14 10 10 10 12 12 14 11 10 11 11 12
12 11 10 12 11 10 9 10 11 11 10 10 7 7 9 10 11 10 8 8 8 8 7 8 9 8 7 9 10 12 12 12 10 11 11 11 10 10 9 11 12 12 11
13 13 11 11 10 8 10 10 11 11 12 11 11 9 9 10 10 9 8 8 7 8 8 9 9 9 12 11 10 8 8 9 7 6 9 10 11 11 11 11 13 14 14
15 14 14 12 11 12 11 10 11 11 11 11 11 10 10 11 9 9 9 6 7 8 9 10 11 11 11 12 12 10 6 7 3 4 5 7 9 10 8 11 12 13 13
14 13 13 13 12 11 11 11 11 11 11 11 11 9 9 8 8 9 6 6 7 10 11 12 12 12 12 14 11 9 9 5 3 5 6 7 10 10 10 12 13 12 13
13 13 13 13 12 11 12 12 12 12 11 11 10 8 8 6 8 6 5 7 9 10 11 12 13 13 15 10 8 7 3 4 5 5 6 8 9 11 12 13 14 13 13
Wind_Direction
94 83 82 73 55 47 40 31 31 26 19 15 4 8 10 14 14 21 15 9 11 10 13 12 4 1 359 350 338 325 311 302 277 260 255 354 34 19 20 57 57 75 58
124 105 98 91 70 55 39 30 37 36 26 17 7 3 16 21 15 18 21 15 11 7 3 11 11 6 9 359 355 348 330 327 313 242 37 18 41 356 22 51 56 59 47
167 142 118 88 81 68 57 49 50 44 32 19 12 7 359 29 26 19 19 22 16 12 6 7 13 14 13 2 10 360 351 355 353 50 56 12 19 20 360 40 45 50 53
179 178 162 101 108 118 93 69 59 53 39 22 12 5 1 17 39 26 19 21 23 16 14 14 18 19 21 12 12 10 -0 9 14 49 52 33 29 354 8 23 49 46 38
182 156 136 169 148 149 124 87 67 55 40 22 14 11 14 28 32 34 17 18 16 21 18 16 18 24 27 25 19 19 19 16 18 36 43 38 28 20 4 348 31 88 54
128 115 115 93 97 119 118 98 81 60 38 26 17 12 26 32 38 37 31 18 19 19 21 19 19 20 19 24 27 27 30 25 29 36 36 31 20 14 6 15 18 27 59
106 103 103 97 85 87 97 103 86 72 50 36 26 20 18 42 37 38 34 23 20 19 25 25 24 21 21 17 21 27 26 30 30 31 33 28 20 10 352 21 52 62 61
109 103 104 103 94 87 84 86 107 89 70 50 38 32 22 31 43 37 34 27 26 24 21 35 28 25 25 22 22 30 28 27 28 31 34 29 30 21 19 25 39 75 58
124 124 124 119 107 93 89 79 102 112 88 66 46 36 31 13 38 43 28 23 23 19 22 24 38 30 30 29 28 28 27 22 18 30 34 34 32 34 31 35 33 36 48
152 143 135 126 123 112 94 74 65 125 104 83 63 44 33 20 25 38 40 25 20 16 20 26 32 37 33 35 33 30 30 15 13 16 20 22 23 25 29 33 32 38 37
160 164 166 174 91 103 92 77 85 87 89 81 62 37 26 22 18 30 34 27 25 12 25 32 34 34 38 38 38 37 34 17 21 27 27 25 23 23 22 23 32 43 46
168 166 155 178 130 111 102 87 85 87 80 70 56 35 14 10 19 24 26 28 36 25 26 44 40 42 39 42 42 40 35 29 30 32 32 29 24 19 16 17 20 34 41
163 153 132 131 128 116 108 100 88 81 78 65 54 39 18 3 360 6 11 30 41 40 47 59 51 43 39 31 40 38 34 33 34 35 29 22 15 13 16 18 20 24 31
155 156 145 140 139 127 114 105 101 94 84 75 55 34 17 6 2 9 28 34 36 40 37 38 32 29 33 25 19 25 29 31 33 33 25 18 19 23 26 19 19 14 25
155 152 162 154 148 144 139 129 116 112 117 103 79 47 22 6 356 30 35 43 47 42 42 37 29 24 29 22 20 23 22 23 31 25 26 25 25 25 25 21 22 19 29
145 150 150 164 160 154 138 126 128 136 125 109 104 95 17 350 23 43 36 34 40 48 51 40 28 23 31 24 21 18 19 21 24 29 28 29 27 26 22 21 19 20 20
150 146 145 143 143 151 166 159 164 151 142 120 70 36 36 17 49 49 45 48 44 52 54 40 36 25 28 25 21 18 11 6 28 31 32 25 28 30 26 23 18 15 16
143 144 143 140 135 125 134 167 181 175 168 116 56 46 40 47 60 54 50 55 41 39 47 41 33 29 31 31 21 16 7 4 9 26 34 31 32 35 30 25 18 14 8
139 146 148 145 146 132 132 127 128 133 155 128 87 62 52 64 62 62 64 70 63 46 39 36 30 26 29 28 20 15 13 8 4 19 32 34 31 32 28 20 12 10 8
143 145 159 144 126 119 127 125 118 126 132 131 103 85 71 79 82 73 72 75 72 63 48 38 22 17 22 20 19 18 13 8 1 5 22 26 29 28 20 17 17 9 3
150 156 143 145 132 123 128 124 122 130 137 132 101 100 105 109 112 100 85 76 78 73 53 31 17 11 11 16 15 12 8 2 359 1 15 19 19 19 11 19 14 5 358
161 158 151 148 142 134 134 136 131 125 131 144 121 100 96 99 109 102 90 78 77 59 34 27 17 13 9 2 1 2 358 359 4 25 15 14 16 13 14 10 5 360 354
169 157 144 146 141 129 137 138 133 126 124 125 125 113 98 100 104 95 92 92 54 30 16 16 19 7 348 342 339 344 346 344 347 16 18 13 15 13 7 9 2 358 353
157 158 148 145 139 136 142 144 137 130 129 123 118 112 110 115 103 100 103 62 33 18 10 4 354 343 335 332 332 337 334 334 343 359 15 18 19 8 3 358 355 349 344
143 151 153 150 151 148 138 141 138 133 131 131 128 118 121 118 99 118 74 46 27 12 358 352 346 340 328 327 326 324 322 330 21 7 11 17 14 5 359 359 359 356 352
141 146 153 149 148 148 147 145 145 141 135 135 131 122 134 113 115 106 58 32 12 1 354 346 342 335 344 324 314 326 34 21 19 20 20 27 16 3 2 358 355 359 350